パンスターズ彗星

C/2017 F2 ( PanSTARRS )

English version
Home page
Updated on August 28, 2018

---------------------------------------------------------------------

・ プロフィール

発見日 2017年3月31日
発見光度 21.2等
発見者 Pan-STARRS 1 telescope (Haleakala)

・ 写真集

・ 軌道要素

Epoch 2017 Nov. 23.0 TT = JDT 2458080.5
T 2017 Nov. 26.39217 TT                                 MPCW
q   6.9276389            (2000.0)            P               Q
z  -0.0007710      Peri.  134.91796     -0.87746152     -0.22766489
 +/-0.0000045      Node    38.66762     -0.22114079     -0.58902292
e   1.0053411      Incl.   42.50786     +0.42562664     -0.77538422
From 49 observations 2017 Mar. 31-2018 May 22, mean residual 0".5.

・ 光度変化

        m1 = 7.5 + 5 logΔ + 10.0 log r

---------------------------------------------------------------------

軌道要素はM.P.E.C. 2018-K95に掲載されたものです。
光度グラフはComet for Windowsで作成したものです。

---------------------------------------------------------------------

Copyright(C) Seiichi Yoshida (comet@aerith.net). All rights reserved.